Theta_e
354 356 354 352 347 342 347 352 353 355 353 352 358 355 355 354 355 356 355 357 354 352 353 355 354 348 349 342 348 345 344 345 346 348 343 335 339 340 338 333 332 332 343
353 353 352 354 354 348 342 347 346 351 353 352 350 356 355 352 351 357 357 353 360 357 353 353 352 350 354 338 339 345 339 335 339 338 333 338 336 341 338 337 335 336 334
351 350 353 351 351 354 354 349 356 349 344 349 347 343 343 342 342 342 341 343 352 354 356 356 354 351 352 333 331 331 327 330 338 330 336 336 335 335 336 338 338 337 342
349 351 349 351 351 354 355 355 354 356 350 347 347 344 342 338 336 337 338 352 357 356 355 356 354 353 342 329 328 328 330 332 332 337 336 334 334 334 336 338 336 337 336
349 349 349 348 349 351 352 354 354 356 355 353 350 349 347 347 344 345 357 360 360 360 357 354 354 353 335 329 328 327 329 336 328 329 330 333 333 334 333 332 335 336 336
348 350 349 349 348 348 349 351 352 354 355 354 353 351 353 347 347 356 362 360 355 356 355 349 351 345 339 336 333 330 328 328 332 335 337 336 336 336 335 337 335 332 330
354 349 352 351 349 348 348 351 352 353 356 355 355 353 348 347 354 361 363 360 358 358 352 352 346 345 341 341 338 334 336 338 339 339 338 338 337 336 336 334 332 331 327
351 357 353 350 356 349 348 350 353 353 353 354 355 351 348 354 355 360 361 358 356 353 355 351 344 343 341 339 337 340 339 337 334 336 337 336 335 334 332 332 331 328 326
354 353 351 355 351 357 354 352 351 355 354 354 354 350 353 364 363 361 360 353 342 348 349 345 344 342 340 336 335 336 336 334 333 333 333 335 335 333 328 322 322 324 326
351 351 359 355 357 354 355 355 354 355 356 356 356 356 359 364 362 358 354 348 343 342 345 345 342 339 338 338 337 336 336 336 334 329 327 324 321 323 324 324 327 328 327
352 348 348 359 359 358 361 363 360 360 362 358 362 362 367 368 363 353 349 344 344 343 344 344 343 341 341 340 338 336 331 326 321 320 325 326 326 325 325 325 325 325 324
353 348 353 357 360 366 364 366 366 366 366 366 367 365 364 361 347 342 336 337 341 343 342 340 338 338 337 335 332 327 320 321 324 325 324 324 324 323 323 324 323 322 323
360 355 347 351 354 363 365 366 369 366 367 369 362 355 354 341 339 337 337 337 335 334 334 334 334 334 330 321 321 322 322 323 322 321 321 321 320 320 320 320 320 321 321
363 358 353 352 354 360 364 366 368 368 369 366 356 350 342 339 337 338 337 335 334 334 333 332 329 320 325 324 324 323 322 320 319 319 318 317 316 315 316 316 317 317 316
359 362 362 363 364 364 363 368 368 366 363 359 348 346 340 339 338 336 335 333 332 332 329 318 325 326 324 324 323 321 320 320 318 318 318 317 315 315 316 317 317 317 316
357 360 359 358 362 362 363 360 359 359 353 351 348 345 341 339 336 334 334 333 331 322 321 326 326 324 323 322 321 320 318 317 317 316 316 316 315 315 315 315 315 316 316
356 358 360 360 359 359 359 359 354 349 348 345 342 338 337 335 333 333 330 320 319 320 325 324 323 322 321 320 318 317 316 316 315 315 315 315 315 315 316 316 315 315 316
354 351 351 344 353 350 349 348 348 347 343 338 335 334 334 333 330 326 319 320 320 322 322 322 321 320 318 317 316 315 315 315 314 314 313 313 314 315 316 316 317 315 314
343 342 344 343 342 339 340 340 340 337 336 333 329 324 324 328 321 319 319 323 324 322 320 320 319 318 316 315 315 314 313 313 312 311 311 311 312 315 317 316 317 317 314
338 338 339 338 337 336 335 336 334 333 330 329 327 322 319 318 319 318 320 321 321 320 319 318 317 316 315 314 313 312 312 311 311 310 310 310 313 315 315 314 317 318 317
330 330 330 330 329 329 326 324 323 323 323 322 321 318 321 322 320 319 319 319 318 318 317 316 316 315 313 312 312 312 311 311 310 309 307 311 313 315 314 313 314 316 317
324 323 324 323 323 323 323 324 324 324 323 321 321 319 319 318 318 317 316 315 315 315 315 315 315 314 312 311 311 311 310 310 307 306 308 311 313 313 313 312 313 314 317
321 322 322 322 322 322 323 322 322 320 318 316 316 316 317 316 316 315 314 313 312 312 312 311 312 312 312 311 311 310 309 307 306 306 309 310 312 312 312 312 312 313 314
322 323 319 317 321 321 320 320 319 317 317 316 316 316 316 315 314 313 312 312 311 311 310 310 310 310 310 310 310 309 307 306 306 306 306 309 311 311 312 311 310 311 313
319 319 319 319 318 318 318 317 317 317 316 316 316 316 315 314 312 311 311 310 310 309 309 309 308 308 308 309 310 309 307 306 306 306 306 306 310 310 310 310 310 310 311
320 319 319 319 318 318 317 316 316 315 315 314 314 313 312 312 312 311 310 310 310 309 309 308 308 308 308 307 308 308 305 305 305 306 305 309 310 311 311 311 311 311 311
Wind_Speed
28 33 29 31 32 29 30 27 26 21 22 25 19 24 24 21 19 17 14 13 16 16 15 15 13 12 11 12 11 12 9 8 11 16 20 18 19 18 15 17 23 22 16
29 33 31 29 27 28 31 30 26 29 24 27 28 26 24 20 18 17 18 15 17 18 15 15 13 9 8 9 8 10 12 12 14 18 17 17 17 15 23 24 15 14 16
31 31 32 31 31 29 28 30 28 27 30 28 28 26 26 26 22 23 24 23 20 17 16 16 11 11 15 14 12 12 12 13 13 16 15 18 19 19 21 16 14 17 15
34 32 33 34 32 31 32 30 30 29 26 27 26 22 21 23 25 26 27 22 18 16 16 15 13 13 16 14 11 10 10 11 13 11 17 19 18 18 19 19 24 19 19
33 35 35 36 35 32 32 33 30 31 30 26 26 27 25 24 25 26 24 21 19 19 15 12 12 16 15 14 11 10 12 15 16 17 20 21 21 23 26 23 22 24 25
32 31 36 36 37 36 35 34 35 34 33 31 28 31 31 28 26 22 18 18 17 17 15 12 12 15 15 16 12 13 14 15 18 20 21 24 27 22 24 19 26 31 27
30 36 31 35 39 40 38 39 39 39 37 37 35 30 32 31 30 24 24 20 16 15 13 12 11 7 12 18 16 17 17 17 16 20 24 26 27 26 25 30 32 34 37
31 31 38 42 33 42 43 43 40 42 43 45 41 35 32 31 32 27 22 19 18 13 14 12 11 14 11 12 16 16 19 20 20 19 23 25 25 32 34 31 36 38 36
27 36 39 42 48 39 44 47 47 44 45 45 45 39 36 34 34 26 21 19 17 16 14 14 16 18 20 19 18 23 26 27 26 26 28 31 34 34 37 36 30 29 33
25 28 33 39 43 46 48 47 49 49 48 45 45 40 38 39 37 25 23 21 18 15 16 23 15 16 19 21 22 23 26 27 30 32 33 33 27 17 20 26 26 22 22
21 23 26 31 38 38 42 41 45 48 45 45 39 41 38 38 30 24 22 18 18 12 14 16 17 19 20 23 21 20 24 29 30 22 14 19 19 13 11 13 14 21 26
22 20 21 27 29 32 38 38 39 41 40 34 39 43 33 28 23 24 15 12 17 16 15 12 15 14 16 18 23 26 24 15 13 15 14 15 19 20 19 21 22 23 21
19 23 20 21 24 29 29 35 40 40 37 41 40 32 28 24 22 17 14 15 16 18 18 18 22 19 20 20 13 10 11 9 15 15 13 17 22 25 25 22 23 26 30
19 18 18 17 20 24 27 31 36 37 42 42 33 25 25 23 17 13 12 12 10 13 14 19 19 13 4 7 6 6 9 13 15 13 18 18 20 25 22 25 29 30 28
16 18 19 22 25 29 30 33 34 38 35 33 26 20 18 15 16 15 12 9 10 10 9 11 3 1 1 2 4 8 9 9 10 14 14 20 22 24 27 27 26 27 26
20 21 22 22 24 27 29 26 25 29 26 19 17 14 12 13 15 15 10 8 13 13 6 7 6 4 1 2 2 4 5 9 11 13 15 17 21 19 26 32 36 28 25
15 16 17 21 24 20 21 24 25 24 25 19 14 14 14 17 14 10 7 7 5 5 7 5 4 2 1 1 2 4 5 7 11 12 13 16 20 23 28 29 32 39 34
21 25 27 26 24 27 27 30 32 28 27 23 19 16 14 13 10 6 3 5 6 8 7 4 2 1 1 2 2 4 6 7 10 12 13 16 17 20 22 27 27 32 41
24 22 25 26 26 27 27 26 23 20 17 16 15 13 10 9 3 10 12 11 6 6 4 4 3 2 0 1 3 5 5 9 11 12 15 17 16 19 22 24 26 28 35
17 19 22 24 22 19 15 13 11 10 8 5 4 5 11 9 8 9 9 7 7 6 6 3 3 1 2 3 3 5 7 8 10 11 15 14 15 16 23 23 21 23 25
26 24 21 18 16 15 15 14 14 15 12 10 5 9 12 7 6 6 5 7 5 3 5 3 1 0 2 3 4 5 6 8 10 13 14 9 13 21 21 24 21 19 23
20 19 20 18 17 16 14 13 16 15 14 9 5 11 12 8 7 7 4 1 2 5 2 3 2 2 6 4 5 6 6 8 9 12 13 10 11 18 21 23 24 24 20
19 18 15 16 18 12 13 14 12 11 10 8 11 13 10 8 4 3 4 2 3 2 3 1 3 3 7 5 4 6 9 8 9 10 12 13 13 17 21 22 25 26 25
12 11 10 11 12 8 11 13 13 11 10 9 8 5 4 4 2 5 4 3 2 2 4 4 4 8 9 5 5 7 9 7 8 10 13 13 16 17 21 19 23 25 23
18 18 15 11 10 13 14 13 11 8 7 6 5 3 1 1 0 3 0 4 3 5 5 7 7 6 7 7 10 13 13 11 12 13 14 12 16 17 18 16 20 24 23
17 15 14 13 12 10 10 9 7 6 5 4 3 2 2 2 3 4 5 6 7 6 7 9 7 10 8 10 12 15 18 15 14 13 13 8 15 15 16 16 17 20 19
Wind_Direction
212 215 219 222 224 218 214 219 212 217 212 218 211 221 236 236 232 246 248 236 257 278 283 281 283 276 265 245 253 268 274 284 293 281 293 301 319 325 325 304 300 293 278
215 210 219 218 220 223 217 219 222 215 217 221 223 231 236 237 238 239 252 252 244 259 270 278 275 259 273 265 257 259 281 297 300 305 317 322 318 314 312 311 327 341 330
213 211 213 220 222 219 226 218 223 226 221 224 232 232 235 242 240 241 244 245 244 249 249 268 266 237 250 260 264 273 288 275 273 294 306 320 321 316 314 312 322 324 310
209 211 214 216 220 222 216 228 216 229 231 224 230 237 236 236 240 245 245 241 244 252 247 243 255 235 261 265 277 292 305 303 307 306 298 297 302 305 295 294 308 310 307
213 213 214 218 218 221 223 218 225 222 235 236 225 234 237 236 242 245 238 237 238 244 231 241 246 244 263 259 278 282 281 275 287 291 297 301 305 302 302 305 301 298 293
210 218 218 218 219 221 223 224 219 223 229 236 233 228 232 241 250 247 245 245 245 242 243 259 251 246 258 267 266 284 284 287 301 307 308 310 314 307 309 299 300 308 308
220 224 226 223 221 223 224 225 223 221 224 233 238 232 233 241 244 236 232 240 242 242 248 244 271 258 271 258 265 284 289 295 302 308 304 305 305 306 302 304 304 304 310
235 229 227 231 228 227 223 227 228 226 227 231 236 237 240 236 241 236 222 225 220 246 227 247 257 235 252 255 268 268 276 279 285 296 306 303 293 292 295 299 304 304 305
246 246 241 233 232 230 228 227 230 230 229 231 236 238 235 232 234 230 219 219 204 218 224 218 223 232 249 260 268 276 276 283 289 285 278 276 283 290 294 300 300 301 298
273 260 247 242 239 236 234 231 231 231 231 233 234 234 231 229 233 221 207 199 220 216 240 233 233 242 253 257 261 271 284 291 295 295 294 297 305 324 325 308 300 299 297
280 271 255 242 239 239 236 232 228 229 226 229 225 226 222 226 219 193 186 204 207 199 227 251 255 252 255 260 270 282 294 301 306 313 334 338 335 318 312 317 316 314 312
287 284 247 241 235 233 227 228 221 225 221 211 211 218 209 214 188 182 204 214 216 208 211 248 268 261 263 277 290 297 300 312 333 339 313 318 308 308 302 297 298 298 293
285 281 253 245 241 231 228 227 220 213 215 206 206 205 195 174 183 195 197 203 209 216 225 243 252 269 285 300 311 327 337 334 305 311 318 315 309 302 301 300 289 286 284
273 269 259 248 228 224 225 223 218 211 205 204 191 195 172 174 184 193 203 215 227 229 250 258 270 285 354 6 17 327 318 322 341 342 331 334 335 332 319 310 303 297 297
260 246 224 215 210 209 211 206 204 202 194 188 173 173 167 179 193 186 187 194 229 261 264 274 252 112 237 319 301 319 341 339 349 339 344 338 340 342 354 351 338 325 318
251 241 231 222 206 209 201 198 181 181 173 179 169 189 173 178 187 184 195 236 265 304 270 185 209 207 233 261 341 344 339 331 347 357 340 332 336 345 351 4 8 352 335
245 233 209 206 193 184 197 212 196 153 152 160 161 159 170 168 177 214 248 271 270 175 198 206 194 194 242 45 8 330 335 349 346 344 342 329 329 336 338 349 355 4 356
190 172 166 159 170 160 158 156 157 160 157 152 154 166 172 191 204 254 234 176 117 164 190 175 194 174 198 36 345 334 323 351 339 335 334 327 325 317 320 331 339 357 5
153 157 162 159 154 148 142 137 143 146 147 153 159 166 184 233 228 154 132 127 153 189 174 181 161 137 203 356 321 324 350 346 343 340 335 327 322 325 325 328 327 344 359
117 123 127 124 121 122 121 123 136 150 157 171 207 198 140 120 128 123 121 131 172 189 174 182 172 173 326 309 336 347 355 349 338 331 326 327 332 338 338 341 326 335 349
82 78 80 82 88 94 90 83 91 92 101 110 120 128 115 97 109 105 144 152 147 201 163 175 114 327 321 308 320 346 342 331 313 321 335 331 335 332 343 344 341 324 329
99 92 97 90 105 103 106 119 127 132 131 151 155 144 133 121 133 137 157 128 165 175 217 197 180 260 286 298 337 315 326 298 330 347 346 352 351 357 350 344 344 339 327
98 92 91 96 95 94 118 110 117 126 123 111 120 131 115 115 130 151 160 194 198 182 277 225 259 244 282 282 305 303 295 323 344 350 349 359 352 358 357 341 345 339 341
96 74 75 76 98 127 125 112 105 105 108 95 95 112 126 111 177 215 163 212 239 263 283 296 287 264 264 279 278 278 295 316 328 332 337 336 352 354 351 334 345 341 350
89 100 111 127 120 90 90 94 95 92 96 108 109 111 93 119 268 318 250 289 292 284 279 285 285 269 285 282 276 282 305 302 311 319 327 338 353 351 339 348 348 343 347
99 102 103 105 102 95 91 96 99 95 88 81 67 48 14 354 320 294 291 281 281 285 283 285 277 281 294 288 281 289 306 299 302 310 325 347 352 343 339 337 344 345 347